{"data":{"norad_id":67927,"intl_designator":"2026-036Z","name":"STARLINK-36728","alt_names":[],"object_type":"PAYLOAD","status":"ACTIVE","operator":null,"country":"US","launch_date":"2026-02-22","launch_site_code":"AFETR","launch_vehicle":null,"mission":null,"orbit_class":"UNKNOWN","rcs_meters":null,"size_class":null,"mass_kg":null,"dimensions":null,"purposes":["comms"],"wikipedia_slug":null,"has_3d_model":false,"image_url":null,"decayed_at":null,"tle_current":{"epoch":"2026-05-25T01:30:59.081184Z","epoch_age_seconds":66901,"freshness":"FRESH","line1":"1 67927U 26036Z   26145.06318381  .00006878  00000+0  25917-3 0  9991","line2":"2 67927  43.0043 173.8311 0001413 273.1894  86.8796 15.27586783 15400","mean_motion":15.27586783,"eccentricity":0.0001413,"inclination_deg":43.0043,"raan_deg":173.8311,"arg_perigee_deg":273.1894,"mean_anomaly_deg":86.8796,"bstar":0.00025917,"rev_number":1540,"period_min":94.266330137526,"perigee_km":482.05930264716,"apogee_km":483.99826809811,"semimajor_km":6861.1657853726,"source":"CELESTRAK","updated_at":"2026-05-25T13:38:21.764809Z"}}}